Weather in Serinhisar

Turkey     37°34′50″N   29°15′49″E
temp.,
°C
wind,
m/s
gust,
m/s
humid.,
%
clouds,
%
prec.,
mm/h
press.,
hPa
HPBL,
m
30 november, tue
tue3000:00+12s61270100 0.1 1011743
03:00+11ssw4788100 3.3 1010495
06:00+11ssw4879100 1.9 1009489
09:00+9ssw49829 2.4 1009758
12:00+10sw81773100 0.3 10081840
15:00+7wsw91683100 2.4 10091572
18:00+6wsw11177956 2.2 10101456
21:00+5wsw8128490 2.6 1012998
1 december, wed
wed100:00+4wsw6118672 0.7 1013906
03:00+3w478049 1.5 1015610
06:00+1wnw228913 0.1 101638
09:00+1wnw228252 0.1 1017261
12:00+4wnw12553 0.0 1017823
15:00+6wnw33452 0.0 10151074
18:00+3nw22590 0.0 101734
21:00+2nnw11680 0.0 101812
2 december, thu
thu200:00+1ne11650 0.0 101910
03:000se11630 0.0 102010
06:000se11610 0.0 102010
09:00+2sse22530 0.0 102022
12:00+8sse23330 0.0 1017408
15:00+11ssw23290 0.0 1015934
18:00+5wsw22510 0.0 101720
21:00+4ssw22640 0.0 102014
3 december, fri
fri300:00+3s33810 0.0 102119
03:00+2sse22853 0.0 102119
06:00+2s22875 0.0 102115
09:00+3sse22864 0.0 102133
12:00+8sse3568100 0.0 1019725
15:00+10ssw4555100 0.0 10161003
18:00+7sse3478100 0.1 1018340
21:00+7sse3584100 0.5 1018298
4 december, sat
sat400:00+7sse3586100 0.1 1017214
03:00+7s3585100 0.1 1016238
06:00+6sse4690100 0.5 1015397
09:00+6sse469299 2.2 1014461
12:00+7sse4786100 2.2 1012582
15:00+10sse486761 2.4 10081074
18:00+8sse457762 0.1 1006100
21:00+5wnw2294100 7.6 1007193